Location: ???????
(55.4362°N, 38.1183°E)
Time: 00:02:57
(UTC+00:00)

NOSS 0 Rocket - Visible Passes

Search period start: 19 October 2021 00:00
Search period end: 29 October 2021 00:00
Orbit: 937 x 953 km, 70.0° (Epoch: 18 October)

Date Brightness Start Highest point End Pass type
(mag) Time Alt. Az. Time Alt. Az. Time Alt. Az.
19 Oct 5.8 01:00:26 11° NW 01:05:13 24° NNE 01:10:09 10° ENE visible
19 Oct 4.8 02:47:07 10° NNW 02:53:08 50° NE 02:59:07 10° ESE visible
19 Oct 6.1 21:48:23 20° NNE 21:48:23 20° NNE 21:50:33 10° NNE visible
19 Oct 5.8 23:32:23 20° NNW 23:33:25 21° N 23:38:02 10° NE visible
20 Oct 5.6 01:16:44 10° NW 01:21:59 28° NNE 01:27:11 10° E visible
20 Oct 4.3 03:03:22 10° NW 03:09:33 68° NE 03:15:41 10° SE visible
20 Oct 6.1 22:04:22 20° NNE 22:04:22 20° NNE 22:06:55 10° NE visible
20 Oct 5.9 23:48:21 19° NNW 23:50:17 21° N 23:54:53 10° NE visible
21 Oct 5.4 01:33:06 10° NNW 01:38:39 33° NNE 01:44:11 10° E visible
21 Oct 4.0 03:19:39 10° NW 03:25:52 89° SW 03:32:02 10° SSE visible
21 Oct 6.6 20:36:21 11° NNE 20:36:21 11° NNE 20:36:31 10° NNE visible
21 Oct 6.1 22:20:21 21° N 22:20:21 21° N 22:23:23 10° NE visible
22 Oct 5.9 00:04:21 17° NNW 00:07:07 22° NNE 00:11:52 10° ENE visible
22 Oct 5.0 01:49:24 10° NNW 01:55:15 42° NE 02:01:04 10° ESE visible
22 Oct 6.5 20:52:23 12° NNE 20:52:23 12° NNE 20:52:48 10° NNE visible
22 Oct 6.0 22:36:23 21° N 22:36:23 21° N 22:39:58 10° NE visible
23 Oct 5.8 00:20:23 16° NNW 00:23:55 25° NNE 00:28:55 10° ENE visible
23 Oct 4.6 02:05:41 10° NNW 02:11:45 54° NE 02:17:46 10° ESE visible
23 Oct 6.5 21:08:27 13° NNE 21:08:27 13° NNE 21:09:07 10° NNE visible
23 Oct 6.0 22:52:27 21° N 22:52:27 21° N 22:56:44 10° NE visible
24 Oct 5.6 00:36:28 15° NNW 00:40:39 29° NNE 00:45:57 10° E visible
24 Oct 4.1 02:21:56 10° NW 02:28:09 73° NE 02:34:17 10° SE visible
24 Oct 6.5 21:24:35 14° NNE 21:24:35 14° NNE 21:25:31 10° NE visible
24 Oct 5.9 23:08:35 21° N 23:08:59 21° N 23:13:37 10° NE visible
25 Oct 5.3 00:52:37 14° NNW 00:57:19 35° NNE 01:02:54 10° E visible
25 Oct 3.9 02:38:13 10° NW 02:44:25 82° WSW 02:50:35 10° SSE visible
25 Oct 6.4 21:40:47 14° NNE 21:40:47 14° NNE 21:42:01 10° NE visible
25 Oct 5.8 23:24:48 22° N 23:25:49 23° NNE 23:30:38 10° ENE visible
26 Oct 4.9 01:08:50 14° NNW 01:13:52 44° NE 01:19:46 10° ESE visible
26 Oct 4.0 02:54:33 10° NW 03:00:36 59° WSW 03:06:36 10° SSE visible
26 Oct 6.4 21:57:05 15° NNE 21:57:05 15° NNE 21:58:39 10° NE visible
26 Oct 5.7 23:41:07 23° N 23:42:36 26° NNE 23:47:41 10° ENE visible
27 Oct 4.4 01:25:09 15° NNW 01:30:21 59° NE 01:36:25 10° SE visible
27 Oct 4.4 03:10:58 10° NW 03:16:40 40° WSW 03:22:20 10° S visible
27 Oct 6.3 22:13:31 16° NNE 22:13:31 16° NNE 22:15:27 10° NE visible
27 Oct 5.5 23:57:33 26° N 23:59:19 30° NNE 00:04:42 10° E visible
28 Oct 4.0 01:41:36 16° NW 01:46:42 79° NE 01:52:53 10° SE visible
28 Oct 4.8 03:27:32 10° NW 03:32:38 28° WSW 03:37:42 10° SSW visible
28 Oct 6.0 16:59:06 10° S 16:59:27 12° S 16:59:27 12° S visible
28 Oct 6.3 22:30:05 18° NE 22:30:05 18° NE 22:32:22 10° ENE visible
